Home   Weather   Copenhagen   Past weeks

Flag for Denmark Past Weather in Copenhagen, Denmark — Yesterday and Last 2 Weeks

23 °F

Passing clouds.

Feels Like: 23 °F
Forecast: 29 / 38 °F
Wind: 2 mph from East

Location: Koebenhavn-Kastrup Airport

Current Time: Mar 19, 2018 at 4:11:02 am

Latest Report: Mar 19, 2018 at 3:50 am

Visibility: N/A

Pressure: 30.15 "Hg

Humidity: 93%

Dew Point: 21 °F

Location of CopenhagenLocation

Past Weather in Copenhagen — Graph


Copenhagen Temperature Yesterday

Maximum temperature yesterday: 36 °F (at 12:50 pm)
Minimum temperature yesterday: 25 °F (at 12:20 am)
Average temperature yesterday: 29 °F

High & Low Weather Summary for the Past Weeks

High41 °F (Mar 6, 12:50 pm)100% (Mar 5, 9:48 am)30.33 "Hg (Mar 5, 9:48 am)
Low23 °F (Mar 16, 11:50 pm)47% (Mar 17, 3:20 pm)29.24 "Hg (Mar 13, 2:50 am)
Average33 °F85%29.71 "Hg
* Reported Mar 4 2:20 am — Mar 19 2:50 am, Copenhagen. Weather by CustomWeather, © 2018

Note: Actual official high and low records may vary slightly from our data, if they occured in-between our weather recording intervals... More about our weather records


Copenhagen Weather History for the Previous 24 Hours

Scroll right to see more
Time TempWeatherWind HumidityBarometerVisibility
2:50 am
Mon, Mar 19
27 °FPassing clouds.1 mph86%30.15 "HgN/A
2:20 am25 °FClear.1 mph86%30.18 "Hg10 mi
1:50 am25 °FClear.3 mph86%30.18 "Hg10 mi
1:20 am27 °FClear.5 mph86%30.18 "Hg10 mi
12:50 am27 °FClear.5 mph80%30.18 "Hg10 mi
12:20 am28 °FClear.5 mph74%30.18 "Hg10 mi
11:50 pm
Sun, Mar 18
28 °FClear.6 mph74%30.21 "Hg10 mi
11:20 pm28 °FClear.7 mph74%30.21 "Hg10 mi
10:50 pm28 °FClear.5 mph74%30.21 "Hg10 mi
10:20 pm28 °FClear.6 mph69%30.21 "Hg10 mi
9:50 pm28 °FClear.7 mph69%30.21 "Hg10 mi
9:20 pm30 °FClear.6 mph59%30.21 "Hg10 mi
8:50 pm28 °FClear.7 mph69%30.21 "Hg10 mi
8:20 pm28 °FClear.7 mph64%30.21 "Hg10 mi
7:50 pm28 °FClear.7 mph64%30.21 "Hg10 mi
7:20 pm30 °FClear.7 mph59%30.21 "Hg10 mi
6:50 pm30 °FClear.8 mph64%30.21 "Hg10 mi
6:20 pm32 °FClear.8 mph64%30.21 "Hg10 mi
5:50 pm32 °FSunny.7 mph64%30.21 "Hg10 mi
5:20 pm34 °FSunny.7 mph56%30.24 "Hg10 mi
4:50 pm34 °FSunny.10 mph51%30.24 "Hg10 mi
4:20 pm34 °FSunny.10 mph51%30.24 "Hg10 mi
3:50 pm34 °FSunny.12 mph51%30.24 "Hg10 mi
3:20 pm34 °FPassing clouds.10 mph56%30.27 "HgN/A
2:50 pm36 °FPassing clouds.10 mph52%30.27 "HgN/A
2:20 pm36 °FPassing clouds.10 mph48%30.27 "HgN/A
1:50 pm36 °FPassing clouds.12 mph52%30.27 "HgN/A
1:20 pm34 °FPassing clouds.13 mph51%30.30 "HgN/A
12:50 pm36 °FPassing clouds.12 mph48%30.30 "HgN/A
12:20 pm34 °FPassing clouds.12 mph51%30.30 "HgN/A
11:50 am34 °FPassing clouds.12 mph56%30.30 "HgN/A
11:20 am32 °FPassing clouds.12 mph60%30.30 "HgN/A
10:50 am32 °FPassing clouds.12 mph60%30.30 "HgN/A
10:20 am30 °FPassing clouds.10 mph64%30.30 "HgN/A
9:50 am30 °FPassing clouds.10 mph64%30.33 "HgN/A
9:20 am28 °FPassing clouds.12 mph69%30.33 "HgN/A
8:50 am28 °FPassing clouds.14 mph69%30.33 "HgN/A
8:20 am27 °FPassing clouds.15 mph74%30.33 "HgN/A
7:50 am27 °FSunny.15 mph74%30.30 "Hg10 mi
7:20 am25 °FPassing clouds.13 mph80%30.30 "HgN/A
6:50 am25 °FPassing clouds.14 mph80%30.30 "HgN/A
6:20 am25 °FPassing clouds.14 mph80%30.30 "HgN/A
5:50 am25 °FPassing clouds.15 mph74%30.30 "HgN/A
5:20 am25 °FPassing clouds.15 mph74%30.30 "HgN/A
4:50 am25 °FPassing clouds.15 mph80%30.30 "HgN/A
4:20 am25 °FPassing clouds.15 mph80%30.30 "HgN/A
Weather by CustomWeather, © 2018

See weather overview